Orbital Elements at Epoch 2459000.5 (2020-May-31.0) TDB
Reference: JPL 11 (heliocentric ecliptic J2000)
Element | Value | Uncertainty (1-sigma) | Units |
e | .4453513589500849 | 3.9549e-05 | |
a | 65.89550755745904 | 0.0041582 | au |
q | 36.54885371803907 | 0.0014259 | au |
i | 13.54546009202228 | 3.7207e-05 | deg |
node | 67.34810386638122 | 0.00042939 | deg |
peri | 20.07255160043903 | 0.0035058 | deg |
M | 322.0887344390898 | 0.0049837 | deg |
tp | 2479575.882599663772 (2076-Sep-29.38259966) | 0.79473 | TDB |
period | 195380.914519413 534.92 | 18.494 0.05063 | d yr |
n | .00184255458566927 | 1.744e-07 | deg/d |
Q | 95.24216139687901 | 0.00601 | au |
|
| | Orbit Determination Parameters
Additional Information
|